Flag for Greenland Weather past 2 weeks in Ilulissat, Greenland

Now
-8 °F

Partly sunny.


Feels Like: -19 °F
Forecast: -24 / -4 °F
Wind: 5 mph from Southeast

Location: Jacobshavn Lufthavn

Current Time: Feb 27, 2015 at 1:30:21 PM

Latest Report: Feb 27, 2015 at 12:50 PM


Visibility: N/A

Pressure: 29.27 "Hg

Humidity: 53%

Dew point: -20 °F

Location of IlulissatLocation

Historic Weather in Ilulissat — Graph

°F

Ilulissat temperature yesterday

Maximum temperature yesterday: -4 °F (at 11:50 AM)
Minimum temperature yesterday: -11 °F (at 12:50 AM)
Average temperature yesterday: -8 °F

Past Weeks' High & Low Weather Summary

 TemperatureHumidityPressure
High0 °F (Feb 12, 1:50 PM)84% (Feb 13, 4:50 PM)30.27 "Hg (Feb 13, 4:50 PM)
Low-24 °F (Feb 14, 5:50 PM)42% (Feb 16, 9:50 PM)29.27 "Hg (Feb 27, 9:50 AM)
Average-11 °F60%29.70 "Hg
* Reported Feb 12 11:50 AM — Feb 27 11:50 AM, Ilulissat, Weather by CustomWeather, © 2015

Note: Actual official high and low records may vary slightly from our data, if they occured in-between our weather recording intervals... More about our weather records

Advertising

Ilulissat weather history for previous 24 hours

 ConditionsComfort  
Time TempWeatherWind HumidityBarometerVisibility
11:50 AM
Fri, Feb 27
-8 °FPartly sunny.5 mph53%29.27 "HgN/A
10:50 AM-9 °FPartly sunny.2 mph53%29.27 "HgN/A
9:50 AM-11 °FPartly sunny.No wind48%29.27 "HgN/A
8:50 AM-15 °FPartly sunny.3 mph57%29.30 "HgN/A
7:50 AM-13 °FPassing clouds.3 mph63%29.30 "HgN/A
6:50 AM-11 °FPassing clouds.1 mph52%29.33 "HgN/A
5:50 AM-13 °FExtremely cold.3 mph57%29.33 "HgN/A
4:50 AM-13 °FExtremely cold.No wind47%29.36 "HgN/A
3:50 AM-11 °FExtremely cold.5 mph52%29.39 "HgN/A
2:50 AM-9 °FFrigid.5 mph44%29.42 "HgN/A
1:50 AM-9 °FFrigid.7 mph44%29.42 "HgN/A
12:50 AM-15 °FExtremely cold.1 mph57%29.45 "HgN/A
11:50 PM
Thu, Feb 26
-11 °FExtremely cold.2 mph48%29.47 "HgN/A
10:50 PM-11 °FExtremely cold.6 mph52%29.50 "HgN/A
9:50 PM-11 °FExtremely cold.No wind52%29.53 "HgN/A
8:50 PM-11 °FExtremely cold.3 mph52%29.56 "HgN/A
7:50 PM-8 °FFrigid.3 mph44%29.62 "HgN/A
6:50 PM-6 °FFrigid.3 mph49%29.65 "HgN/A
5:50 PM-8 °FPassing clouds.2 mph48%29.68 "HgN/A
4:50 PM-4 °FPassing clouds.5 mph45%29.71 "HgN/A
3:50 PM-4 °FPassing clouds.3 mph45%29.74 "HgN/A
2:50 PM-4 °FSunny.7 mph45%29.77 "HgN/A
1:50 PM-4 °FSunny.6 mph45%29.80 "HgN/A
Weather by CustomWeather, © 2015

See weather overviewHow to use our weather pages